FW2103 Weather Reports


time (UTC)temp
C
wind
direction
speed
KPH
gust
KPH
rain 1hr
cm
rain 24hr
cm
rain mn
cm
humidity
%
barometer
mb
20260503212631 16 146 0.0 0.0 0.00 0.00 0.00 37 1015.5
20260503212129 16 160 6.4 8.0 0.00 0.00 0.00 37 1015.3
20260503211626 16 197 4.8 8.0 0.00 0.00 0.00 38 1015.4
20260503211121 17 202 0.0 0.0 0.00 0.00 0.00 41 1015.4
20260503210618 16 181 0.0 0.0 0.00 0.00 0.00 38 1015.2
20260503210114 17 63 8.0 9.7 0.00 0.00 0.00 37 1015.5
20260503205605 17 331 3.2 4.8 0.00 0.00 0.00 38 1015.8
20260503205102 17 29 0.0 0.0 0.00 0.00 0.00 39 1015.4
20260503204558 16 156 0.0 0.0 0.00 0.00 0.00 38 1015.9
20260503204055 16 150 1.6 3.2 0.00 0.00 0.00 40 1015.9
20260503203552 16 177 4.8 8.0 0.00 0.00 0.00 42 1015.7
20260503203050 16 126 11.3 12.9 0.00 0.00 0.00 37 1015.9
20260503202547 16 150 3.2 4.8 0.00 0.00 0.00 37 1016.1
20260503202045 16 175 3.2 8.0 0.00 0.00 0.00 39 1016.1
20260503201543 16 140 8.0 9.7 0.00 0.00 0.00 40 1015.9
20260503201040 16 147 0.0 0.0 0.00 0.00 0.00 43 1016.0
20260503200536 16 168 0.0 1.6 0.00 0.00 0.00 37 1016.3
20260503200033 17 71 1.6 3.2 0.00 0.00 0.00 38 1016.5
20260503195530 17 321 0.0 0.0 0.00 0.00 0.00 35 1016.8
20260503195027 17 74 8.0 12.9 0.00 0.00 0.00 38 1016.9
20260503194525 17 145 0.0 0.0 0.00 0.00 0.00 38 1016.8
20260503194024 16 146 8.0 11.3 0.00 0.00 0.00 41 1017.1
20260503193521 17 306 0.0 0.0 0.00 0.00 0.00 39 1017.1
20260503193016 17 278 1.6 1.6 0.00 0.00 0.00 38 1017.2
20260503192512 16 142 3.2 3.2 0.00 0.00 0.00 42 1017.1
20260503192008 17 290 8.0 16.1 0.00 0.00 0.00 36 1017.3
20260503191506 16 327 4.8 8.0 0.00 0.00 0.00 39 1017.2
20260503191002 16 125 4.8 8.0 0.00 0.00 0.00 37 1017.3
20260503190459 17 118 0.0 0.0 0.00 0.00 0.00 38 1017.3
20260503185956 16 22 1.6 3.2 0.00 0.00 0.00 36 1017.6
20260503185452 16 233 0.0 0.0 0.00 0.00 0.00 43 1017.6
20260503184952 16 157 0.0 0.0 0.00 0.00 0.00 39 1017.9
20260503184448 17 154 4.8 9.7 0.00 0.00 0.00 40 1018.0
20260503183945 16 8 3.2 8.0 0.00 0.00 0.00 37 1017.7
20260503183442 16 304 8.0 12.9 0.00 0.00 0.00 38 1018.0
20260503182938 16 159 0.0 0.0 0.00 0.00 0.00 37 1017.8
20260503182437 16 285 6.4 8.0 0.00 0.00 0.00 38 1018.1
20260503181935 16 6 4.8 4.8 0.00 0.00 0.00 39 1018.0
20260503181432 16 2 1.6 3.2 0.00 0.00 0.00 39 1018.0
20260503180927 16 358 1.6 3.2 0.00 0.00 0.00 38 1018.0
20260503180427 16 76 0.0 0.0 0.00 0.00 0.00 43 1017.8
20260503175922 15 135 0.0 0.0 0.00 0.00 0.00 41 1018.2
20260503175421 15 165 0.0 0.0 0.00 0.00 0.00 40 1018.3
20260503174916 15 132 0.0 0.0 0.00 0.00 0.00 39 1018.5
20260503174415 15 156 0.0 0.0 0.00 0.00 0.00 39 1018.5
20260503173914 15 82 1.6 3.2 0.00 0.00 0.00 39 1018.3
20260503173411 16 129 0.0 0.0 0.00 0.00 0.00 42 1018.7
20260503172908 15 137 0.0 0.0 0.00 0.00 0.00 39 1018.6
20260503172405 15 147 6.4 8.0 0.00 0.00 0.00 41 1018.8
20260503171901 15 168 0.0 0.0 0.00 0.00 0.00 41 1019.0
20260503171358 15 164 0.0 0.0 0.00 0.00 0.00 39 1018.7
20260503170855 15 205 0.0 0.0 0.00 0.00 0.00 40 1019.3
20260503170352 15 125 0.0 0.0 0.00 0.00 0.00 40 1019.0
20260503150744 12 183 0.0 0.0 0.00 0.00 0.00 53 1020.4
20260503150240 12 344 0.0 0.0 0.00 0.00 0.00 54 1020.4
20260503140204 9 150 1.6 3.2 0.00 0.00 0.00 62 1020.4
20260503131134 6 160 0.0 3.2 0.00 0.00 0.00 72 1020.3
20260503130632 6 141 0.0 0.0 0.00 0.00 0.00 74 1020.6
20260503130129 6 136 0.0 0.0 0.00 0.00 0.00 76 1020.3
20260503110522 1 73 0.0 0.0 0.00 0.00 0.00 89 1019.9
20260503090409 1 28 0.0 0.0 0.00 0.00 0.00 90 1018.7
20260503081335 2 28 0.0 0.0 0.00 0.00 0.00 89 1018.9
20260503080832 2 28 0.0 0.0 0.00 0.00 0.00 89 1018.9
20260503080329 2 28 0.0 0.0 0.00 0.00 0.00 88 1018.7
20260503072805 2 28 0.0 0.0 0.00 0.00 0.00 85 1018.7
20260503072305 1 28 0.0 0.0 0.00 0.00 0.00 84 1018.7
20260503071758 1 28 0.0 0.0 0.00 0.00 0.00 84 1018.5
20260503071256 2 28 0.0 0.0 0.00 0.00 0.00 84 1018.5
20260503070752 1 28 0.0 0.0 0.00 0.00 0.00 83 1018.6
20260503070250 2 28 0.0 0.0 0.00 0.00 0.00 84 1018.5
20260503060221 2 28 0.0 0.0 0.00 0.00 0.00 84 1019.0
20260503054707 2 28 0.0 0.0 0.00 0.00 0.00 84 1018.9
20260503054205 3 28 0.0 0.0 0.00 0.00 0.00 83 1018.9
20260503053703 3 28 0.0 0.0 0.00 0.00 0.00 82 1019.0
20260503053201 3 28 0.0 0.0 0.00 0.00 0.00 80 1019.1
20260503052657 3 28 0.0 0.0 0.00 0.00 0.00 79 1019.3
20260503052154 3 28 0.0 0.0 0.00 0.00 0.00 79 1019.1
20260503051649 3 28 0.0 0.0 0.00 0.00 0.00 77 1018.9
20260503051147 3 28 0.0 0.0 0.00 0.00 0.00 77 1019.0
20260503050643 3 28 0.0 0.0 0.00 0.00 0.00 76 1019.1
20260503050140 3 28 0.0 0.0 0.00 0.00 0.00 76 1019.4
20260503045637 3 28 0.0 0.0 0.00 0.00 0.00 77 1019.1
20260503045134 3 28 0.0 0.0 0.00 0.00 0.00 76 1019.0
20260503044631 3 28 0.0 0.0 0.00 0.00 0.00 77 1019.0
20260503044129 3 28 0.0 0.0 0.00 0.00 0.00 76 1019.1
20260503043625 3 28 0.0 0.0 0.00 0.00 0.00 77 1019.3
20260503043122 3 28 0.0 0.0 0.00 0.00 0.00 76 1019.1
20260503042619 3 28 0.0 0.0 0.00 0.00 0.00 78 1019.0
20260503042114 3 28 0.0 0.0 0.00 0.00 0.00 80 1019.0
20260503041611 3 28 0.0 0.0 0.00 0.00 0.00 79 1019.1
20260503041109 3 28 0.0 0.0 0.00 0.00 0.00 80 1019.1
20260503040606 3 28 0.0 0.0 0.00 0.00 0.00 80 1019.4
20260503040103 3 28 0.0 0.0 0.00 0.00 0.00 80 1019.3
20260503035600 3 28 0.0 0.0 0.00 0.00 0.00 80 1019.1
20260503035058 3 28 0.0 0.0 0.00 0.00 0.00 80 1018.9
20260503034555 4 28 0.0 0.0 0.00 0.00 0.00 80 1019.3
20260503034052 4 28 0.0 0.0 0.00 0.00 0.00 81 1019.1
20260503033549 4 28 0.0 0.0 0.00 0.00 0.00 79 1019.0
20260503033047 4 30 0.0 0.0 0.00 0.00 0.00 81 1018.8
20260503032545 4 30 0.0 0.0 0.00 0.00 0.00 79 1018.9
20260503032043 5 30 0.0 0.0 0.00 0.00 0.00 80 1019.3
20260503031540 5 30 0.0 0.0 0.00 0.00 0.00 79 1019.0
20260503031037 5 30 0.0 0.0 0.00 0.00 0.00 77 1019.1
20260503030533 5 30 0.0 0.0 0.00 0.00 0.00 74 1019.0
20260503030031 5 31 0.0 0.0 0.00 0.00 0.00 75 1019.1
20260503025527 5 31 0.0 0.0 0.00 0.00 0.00 70 1019.3
20260503025025 5 28 0.0 0.0 0.00 0.00 0.00 70 1018.9
20260503024521 6 29 0.0 0.0 0.00 0.00 0.00 70 1018.8
20260503024019 6 38 0.0 0.0 0.00 0.00 0.00 69 1018.7
20260503023515 6 38 0.0 0.0 0.00 0.00 0.00 67 1018.8
20260503023013 6 26 0.0 0.0 0.00 0.00 0.00 64 1018.6
20260503022508 6 21 0.0 0.0 0.00 0.00 0.00 62 1018.7
20260503022003 6 37 0.0 0.0 0.00 0.00 0.00 62 1018.7
20260503021500 6 38 0.0 0.0 0.00 0.00 0.00 62 1018.6
20260503020957 6 33 0.0 0.0 0.00 0.00 0.00 61 1018.6
20260503020455 7 26 0.0 0.0 0.00 0.00 0.00 62 1018.3
20260503015951 7 32 0.0 0.0 0.00 0.00 0.00 61 1018.4
20260503015448 7 12 0.0 0.0 0.00 0.00 0.00 61 1018.1
20260503014944 7 34 0.0 0.0 0.00 0.00 0.00 61 1017.9
20260503014441 7 35 0.0 0.0 0.00 0.00 0.00 62 1018.1
20260503013939 7 34 0.0 0.0 0.00 0.00 0.00 61 1018.0
20260503013436 7 39 0.0 0.0 0.00 0.00 0.00 62 1018.0
20260503012933 7 33 0.0 0.0 0.00 0.00 0.00 60 1017.9
20260503012431 7 35 0.0 0.0 0.00 0.00 0.00 60 1018.1
20260503011927 7 41 0.0 0.0 0.00 0.00 0.00 59 1017.7
20260503011424 7 37 0.0 0.0 0.00 0.00 0.00 59 1017.7
20260503010921 7 39 0.0 0.0 0.00 0.00 0.00 60 1017.8
20260503010412 7 40 0.0 0.0 0.00 0.00 0.00 60 1017.4
20260503005909 7 35 0.0 0.0 0.00 0.00 0.00 59 1017.6
20260503005407 8 34 0.0 0.0 0.00 0.00 0.00 58 1017.5
20260503004903 8 29 0.0 0.0 0.00 0.00 0.00 57 1017.5
20260503004400 8 35 0.0 0.0 0.00 0.00 0.00 57 1017.4
20260503003857 8 33 0.0 0.0 0.00 0.00 0.00 57 1017.3
20260503003354 8 29 0.0 0.0 0.00 0.00 0.00 55 1017.4
20260503002851 9 34 0.0 0.0 0.00 0.00 0.00 53 1017.1
20260503002349 10 26 0.0 0.0 0.00 0.00 0.00 53 1017.1
20260503001844 10 26 0.0 0.0 0.00 0.00 0.00 51 1017.1
20260503001341 10 27 0.0 0.0 0.00 0.00 0.00 52 1017.1
20260503000838 10 17 0.0 1.6 0.00 0.00 0.00 52 1017.0
20260503000336 10 35 0.0 0.0 0.00 0.00 0.00 51 1016.8
20260502235832 11 6 0.0 1.6 0.00 0.00 0.00 51 1016.9
20260502235330 11 17 0.0 0.0 0.00 0.00 0.00 50 1016.8
20260502234827 11 312 1.6 3.2 0.00 0.00 0.00 53 1016.9
20260502234323 11 17 0.0 0.0 0.00 0.00 0.00 53 1016.7
20260502233820 11 23 0.0 0.0 0.00 0.00 0.00 51 1016.7
20260502233316 11 20 0.0 0.0 0.00 0.00 0.00 51 1016.7
20260502232813 11 344 0.0 1.6 0.00 0.00 0.00 51 1016.6
20260502232305 11 7 0.0 1.6 0.00 0.00 0.00 51 1016.5
20260502231800 11 2 0.0 1.6 0.00 0.00 0.00 51 1016.6
20260502231258 11 27 0.0 0.0 0.00 0.00 0.00 50 1016.7
20260502230756 11 33 1.6 3.2 0.00 0.00 0.00 50 1016.5
20260502230254 11 292 3.2 4.8 0.00 0.00 0.00 49 1016.4
20260502225750 11 357 1.6 1.6 0.00 0.00 0.00 50 1016.6
20260502225247 11 23 0.0 1.6 0.00 0.00 0.00 54 1016.8
20260502224743 11 40 0.0 1.6 0.00 0.00 0.00 52 1016.7
20260502224235 11 348 1.6 1.6 0.00 0.00 0.00 52 1016.6
20260502223732 11 337 1.6 3.2 0.00 0.00 0.00 53 1016.6
20260502223230 11 70 0.0 0.0 0.00 0.00 0.00 55 1016.7
20260502222728 11 11 0.0 1.6 0.00 0.00 0.00 53 1016.8
20260502222224 11 16 0.0 1.6 0.00 0.00 0.00 53 1016.8
20260502221720 11 11 0.0 0.0 0.00 0.00 0.00 53 1016.9
20260502221217 11 7 0.0 0.0 0.00 0.00 0.00 52 1016.6
20260502220713 11 25 0.0 1.6 0.00 0.00 0.00 52 1016.5
20260502220209 11 26 1.6 3.2 0.00 0.00 0.00 52 1016.6
20260502215707 11 78 0.0 0.0 0.00 0.00 0.00 53 1016.8
20260502215203 11 338 3.2 3.2 0.00 0.00 0.00 51 1016.6
20260502214701 11 14 0.0 0.0 0.00 0.00 0.00 51 1016.5
20260502214158 12 20 0.0 1.6 0.00 0.00 0.00 51 1016.6
20260502213655 12 351 0.0 1.6 0.00 0.00 0.00 49 1016.6
20260502213152 12 353 0.0 1.6 0.00 0.00 0.00 50 1016.6
20260502212651 12 16 3.2 4.8 0.00 0.00 0.00 50 1016.6